[[{"header":{"parameterUnit":"m.s-1","parameterCategory":1,"la1":30.2991,"la2":30.254,"lo1":-89.0895,"lo2":-89.0444,"dy":0.0017,"dx":0.0017,"nx":28,"ny":28,"refTime":"2023-03-18T21:00:00:Z","depth":0,"parameterNumber":2,"parameterNumberName":"U-component_of_WINDS"},"data":[0,0,0,0,0,0,0,0,0,0,0,0,0,0,0,0,0,0,0,0,0,0,0,0,0,0,0,0,0,0,0,0,0,0,0,0,0,0,0,0,0,0,0,0,0,0,0,0,0,0,0,0,0,0,0,0,0,0,-1.0705,-1.0706,0,-1.0747,-1.0748,-1.0748,-1.0727,-1.0725,-1.0724,-1.0723,-1.0768,-1.077,-1.0772,0,0,0,0,0,0,0,0,0,0,0,0,0,-1.0606,-1.0608,-1.0705,-1.0706,-1.0706,-1.0747,-1.0748,-1.0749,-1.0727,-1.0725,-1.0724,-1.0723,-1.0767,-1.077,-1.0773,0,0,0,0,0,0,0,0,0,0,0,0,0,-1.0649,-1.0608,-1.0705,-1.07,-1.07,-1.0747,-1.0748,-1.0749,-1.0727,-1.0725,-1.0724,-1.0722,-1.0766,-1.077,-1.0773,-1.0827,0,0,-1.0783,-1.0785,0,0,0,0,0,0,0,0,-1.0646,-1.0652,-1.07,-1.0701,-1.0701,-1.073,-1.0729,-1.0775,-1.0728,-1.0717,-1.0723,-1.0721,-1.0757,-1.0761,-1.0772,-1.083,-1.0831,-1.0783,-1.0785,-1.0787,-1.0788,0,0,0,0,0,0,0,-1.0643,-1.065,-1.0722,-1.0701,-1.0701,-1.0696,-1.07,-1.0738,-1.0746,-1.0718,-1.0716,-1.0721,-1.0757,-1.0769,-1.0773,-1.0832,-1.0783,-1.0786,-1.0788,-1.079,-1.0935,-1.0937,0,0,0,0,0,0,-1.0641,-1.0648,-1.0721,-1.0723,-1.0669,-1.0699,-1.0704,-1.0722,-1.0745,-1.0747,-1.0723,-1.072,-1.0764,-1.0769,-1.0775,-1.084,-1.0787,-1.079,-1.0792,-1.0934,-1.0936,-1.0938,0,0,0,0,0,0,-1.0638,-1.0647,-1.0719,-1.0685,-1.0694,-1.0703,-1.0724,-1.0724,-1.0737,-1.0749,-1.0751,-1.0735,-1.0763,-1.077,-1.0814,-1.0842,-1.0792,-1.0795,-1.0931,-1.0934,-1.0937,-1.0972,0,0,0,0,0,0,-1.0636,-1.0647,-1.0667,-1.0686,-1.0696,-1.0758,-1.0725,-1.0726,-1.0743,-1.074,-1.0761,-1.0762,-1.0762,-1.0809,-1.0818,-1.0845,-1.0797,-1.0929,-1.0933,-1.0936,-1.0968,-1.0975,-1.0981,0,0,0,0,0,-1.0632,-1.0676,-1.0669,-1.0677,-1.0722,-1.0759,-1.0765,-1.0764,-1.0745,-1.0766,-1.0774,-1.0762,-1.0837,-1.0814,-1.0823,-1.0852,-1.0927,-1.0932,-1.0936,-1.0965,-1.0974,-1.0981,0,0,0,0,0,0,-1.0661,-1.0678,-1.067,-1.0721,-1.0739,-1.0755,-1.0782,-1.0773,-1.0797,-1.0793,-1.0791,-1.0796,-1.0842,-1.0851,-1.0826,-1.0906,-1.0879,-1.0885,-1.0898,-1.0907,-1.0913,-1.0911,-1.08,0,0,0,0,0,-1.0673,-1.0702,-1.0715,-1.0759,-1.0768,-1.0774,-1.079,-1.0787,-1.0806,-1.0813,-1.0824,-1.0843,-1.087,-1.0889,-1.0915,-1.0969,-1.0973,-1.0993,-1.1,-1.1005,-1.1011,-1.104,-1.1049,-1.0952,-1.0952,-1.0951,0,0,-1.0699,-1.0712,-1.073,-1.0765,-1.0778,-1.0808,-1.078,-1.0813,-1.0835,-1.0818,-1.0861,-1.0869,-1.089,-1.0939,-1.0961,-1.0948,-1.1038,-1.101,-1.1015,-1.1017,-1.1045,-1.1054,-1.1062,-1.0954,-1.0954,-1.0953,0,0,-1.0761,-1.0774,-1.0811,-1.0825,-1.0845,-1.0848,-1.0857,-1.0875,-1.088,-1.0922,-1.091,-1.0936,-1.0984,-1.0999,-1.1013,-1.108,-1.107,-1.1088,-1.1123,-1.1152,-1.1159,-1.1166,-1.119,-1.1199,-1.1094,-1.1094,-1.1094,0,-1.0791,-1.0835,-1.0832,-1.0866,-1.0881,-1.0866,-1.0904,-1.0918,-1.0946,-1.0957,-1.0942,-1.1001,-1.1014,-1.1066,-1.1082,-1.1094,-1.1104,-1.1087,-1.1158,-1.1165,-1.1171,-1.1194,-1.1203,-1.1096,-1.1096,-1.1096,-1.1095,0,-1.0871,-1.0902,-1.093,-1.0956,-1.0975,-1.1011,-1.1013,-1.1032,-1.1027,-1.1032,-1.1075,-1.109,-1.1118,-1.113,-1.1126,-1.1182,-1.1173,-1.1158,-1.1132,-1.1183,-1.1204,-1.1213,-1.1099,-1.1098,-1.1098,-1.1097,0,0,-1.0954,-1.0978,-1.0988,-1.1,-1.1021,-1.1044,-1.1079,-1.1107,-1.1123,-1.1143,-1.1172,-1.1212,-1.1198,-1.1214,-1.1211,-1.1236,-1.1288,-1.1217,-1.1218,-1.1231,-1.135,-1.1362,-1.1372,-1.128,-1.1282,-1.1283,-1.1348,0,-1.1019,-1.1079,-1.1077,-1.1133,-1.1162,-1.1147,-1.1177,-1.1193,-1.1198,-1.1223,-1.1229,-1.1257,-1.1236,-1.1246,-1.1269,-1.1276,-1.1312,-1.1271,-1.1308,-1.131,-1.1305,-1.1383,-1.1396,-1.1457,-1.1357,-1.1358,-1.1359,0,-1.1102,-1.1124,-1.1183,-1.1199,-1.1211,-1.1238,-1.1263,-1.1286,-1.1304,-1.1306,-1.1323,-1.1316,-1.1351,-1.1322,-1.1371,-1.1343,-1.1358,-1.1363,-1.1366,-1.137,-1.1338,-1.139,-1.1476,-1.1486,-1.1372,-1.1371,-1.137,0,-1.1158,-1.1201,-1.1243,-1.1253,-1.1272,-1.1292,-1.1301,-1.1316,-1.1333,-1.1354,-1.1365,-1.139,-1.1404,-1.1424,-1.1424,-1.1403,-1.1473,-1.1445,-1.1476,-1.1476,-1.1493,-1.1492,-1.1583,-1.1501,-1.15,-1.15,-1.15,0,-1.123,-1.1267,-1.1268,-1.1293,-1.1334,-1.133,-1.1371,-1.1378,-1.1392,-1.1419,-1.1407,-1.1432,-1.143,-1.1456,-1.1456,-1.1496,-1.1502,-1.1505,-1.1505,-1.1507,-1.1507,-1.1517,-1.1513,-1.1503,-1.1502,-1.1502,-1.1501,0,-1.13,-1.1301,-1.1346,-1.136,-1.1364,-1.1394,-1.1406,-1.143,-1.1433,-1.1467,-1.1475,-1.148,-1.1509,-1.1511,-1.1545,-1.1545,-1.1594,-1.1588,-1.1588,-1.1587,-1.1619,-1.1616,-1.1721,-1.1734,-1.1642,-1.1643,-1.1644,0,-1.1347,-1.1375,-1.1392,-1.1408,-1.1418,-1.1445,-1.1462,-1.1459,-1.1476,-1.1498,-1.1519,-1.1547,-1.157,-1.1617,-1.1624,-1.165,-1.1645,-1.168,-1.1649,-1.165,-1.1647,-1.1645,-1.1648,-1.1687,-1.1688,-1.1689,-1.1689,0,-1.143,-1.1429,-1.1453,-1.1477,-1.1497,-1.1516,-1.1533,-1.1548,-1.1547,-1.1567,-1.1596,-1.1614,-1.1648,-1.1676,-1.17,-1.1709,-1.17,-1.1699,-1.1707,-1.171,-1.1709,-1.171,-1.1605,-1.1697,-1.1696,-1.1695,-1.1695,-1.1695,-1.149,-1.1514,-1.1529,-1.1556,-1.1569,-1.1586,-1.1609,-1.1614,-1.1639,-1.1666,-1.1663,-1.1695,-1.1711,-1.1743,-1.1754,-1.178,-1.1768,-1.1781,-1.1784,-1.1787,-1.1791,-1.1704,-1.1784,-1.1784,-1.1784,-1.1784,-1.1784,0,-1.1573,-1.1582,-1.1606,-1.1631,-1.1652,-1.164,-1.1658,-1.1677,-1.1706,-1.1721,-1.1743,-1.1776,-1.1803,-1.1812,-1.1838,-1.1856,-1.1852,-1.1863,-1.1863,-1.1865,-1.18,-1.179,-1.1866,-1.1866,-1.1866,-1.1866,-1.1866,-1.1866,-1.1619,-1.1659,-1.166,-1.1706,-1.1714,-1.1746,-1.1758,-1.1773,-1.1785,-1.1823,-1.1845,-1.185,-1.1862,-1.1889,-1.1913,-1.1915,-1.1925,-1.1938,-1.1938,-1.1878,-1.1869,-1.1862,-1.1852,-1.194,-1.194,-1.2001,-1.2001,-1.2002]},{"header":{"parameterUnit":"m.s-1","parameterCategory":1,"la1":30.2991,"la2":30.254,"lo1":-89.0895,"lo2":-89.0444,"dy":0.0017,"dx":0.0017,"nx":28,"ny":28,"refTime":"2023-03-18T21:00:00:Z","depth":0,"parameterNumber":3,"parameterNumberName":"V-component_of_WINDS"},"data":[0,0,0,0,0,0,0,0,0,0,0,0,0,0,0,0,0,0,0,0,0,0,0,0,0,0,0,0,0,0,0,0,0,0,0,0,0,0,0,0,0,0,0,0,0,0,0,0,0,0,0,0,0,0,0,0,0,0,-7.083,-7.0831,0,-7.0912,-7.0913,-7.0914,-7.0855,-7.0853,-7.085,-7.0848,-7.0927,-7.0931,-7.0935,0,0,0,0,0,0,0,0,0,0,0,0,0,-7.0618,-7.0622,-7.083,-7.0831,-7.0832,-7.0912,-7.0913,-7.0914,-7.0856,-7.0853,-7.085,-7.0847,-7.0925,-7.093,-7.0936,0,0,0,0,0,0,0,0,0,0,0,0,0,-7.0706,-7.0624,-7.083,-7.0813,-7.0812,-7.0912,-7.0913,-7.0914,-7.0857,-7.0853,-7.0849,-7.0845,-7.0923,-7.093,-7.0937,-7.1056,0,0,-7.0957,-7.096,0,0,0,0,0,0,0,0,-7.0701,-7.0714,-7.0814,-7.0814,-7.0813,-7.087,-7.0867,-7.0962,-7.0857,-7.0839,-7.0848,-7.0843,-7.091,-7.0918,-7.0942,-7.1059,-7.1063,-7.0958,-7.0962,-7.0965,-7.0967,0,0,0,0,0,0,0,-7.0695,-7.071,-7.0862,-7.0816,-7.0815,-7.0799,-7.0808,-7.0885,-7.0895,-7.0841,-7.0837,-7.0847,-7.0909,-7.0935,-7.0943,-7.1064,-7.0958,-7.0964,-7.0968,-7.097,-7.1284,-7.1289,0,0,0,0,0,0,-7.0691,-7.0705,-7.0859,-7.0864,-7.0747,-7.0806,-7.0816,-7.0855,-7.0894,-7.0897,-7.0851,-7.0844,-7.0926,-7.0935,-7.0946,-7.1089,-7.0965,-7.0971,-7.0975,-7.128,-7.1285,-7.129,0,0,0,0,0,0,-7.0687,-7.0706,-7.0856,-7.0784,-7.0802,-7.0814,-7.0859,-7.0859,-7.0885,-7.0902,-7.0903,-7.0876,-7.0923,-7.0936,-7.1029,-7.1091,-7.0974,-7.098,-7.1275,-7.1282,-7.1288,-7.1375,0,0,0,0,0,0,-7.0681,-7.0704,-7.0751,-7.0786,-7.0806,-7.094,-7.0863,-7.0863,-7.0897,-7.089,-7.0926,-7.0928,-7.0921,-7.102,-7.1036,-7.1098,-7.0986,-7.127,-7.1278,-7.1286,-7.1367,-7.1384,-7.1399,0,0,0,0,0,-7.0674,-7.0771,-7.0754,-7.0772,-7.0865,-7.0944,-7.0955,-7.0947,-7.0903,-7.0949,-7.096,-7.0927,-7.1081,-7.103,-7.1048,-7.1112,-7.1266,-7.1276,-7.1285,-7.136,-7.1381,-7.1398,0,0,0,0,0,0,-7.0741,-7.0775,-7.0756,-7.0868,-7.0904,-7.0934,-7.0992,-7.0969,-7.1017,-7.1008,-7.0993,-7.1002,-7.11,-7.1115,-7.1057,-7.123,-7.1166,-7.118,-7.1217,-7.1237,-7.1252,-7.1247,-7.0991,0,0,0,0,0,-7.0769,-7.0832,-7.0858,-7.0953,-7.0973,-7.098,-7.1014,-7.1004,-7.104,-7.1054,-7.1072,-7.1107,-7.1163,-7.1201,-7.1253,-7.1369,-7.1376,-7.1422,-7.1438,-7.1451,-7.1463,-7.1526,-7.1547,-7.1322,-7.1322,-7.1322,0,0,-7.0827,-7.0853,-7.0894,-7.0968,-7.0994,-7.1059,-7.0993,-7.1063,-7.1111,-7.1064,-7.1155,-7.1169,-7.1207,-7.1312,-7.1359,-7.1328,-7.1527,-7.1463,-7.1473,-7.1478,-7.1538,-7.1559,-7.1578,-7.1328,-7.1327,-7.1326,0,0,-7.0966,-7.0992,-7.1076,-7.1105,-7.1147,-7.1151,-7.1171,-7.1205,-7.1214,-7.1304,-7.1272,-7.1327,-7.1424,-7.1453,-7.148,-7.1631,-7.1603,-7.1649,-7.1731,-7.1792,-7.181,-7.1826,-7.1881,-7.19,-7.1661,-7.1661,-7.1661,0,-7.1032,-7.113,-7.1121,-7.1195,-7.1229,-7.1192,-7.1276,-7.1303,-7.136,-7.1383,-7.1348,-7.147,-7.1493,-7.1605,-7.1642,-7.1665,-7.1687,-7.1645,-7.1809,-7.1824,-7.1839,-7.1891,-7.1911,-7.1666,-7.1666,-7.1665,-7.1664,0,-7.121,-7.1278,-7.134,-7.1399,-7.1439,-7.1517,-7.1519,-7.1561,-7.1548,-7.1556,-7.1648,-7.1674,-7.1732,-7.1758,-7.1745,-7.1869,-7.1848,-7.1811,-7.1746,-7.1866,-7.1914,-7.1934,-7.1674,-7.1672,-7.167,-7.1669,0,0,-7.1393,-7.1447,-7.147,-7.1496,-7.1541,-7.1592,-7.1669,-7.1728,-7.1764,-7.1804,-7.1868,-7.1952,-7.1918,-7.1949,-7.1939,-7.1993,-7.2113,-7.1949,-7.195,-7.198,-7.2251,-7.2279,-7.2303,-7.2094,-7.2098,-7.2101,-7.2248,0,-7.1535,-7.1671,-7.1666,-7.1792,-7.1856,-7.1822,-7.1889,-7.1923,-7.1932,-7.1985,-7.1994,-7.2055,-7.2005,-7.2024,-7.2076,-7.2087,-7.2167,-7.2076,-7.2152,-7.2155,-7.2145,-7.2328,-7.2358,-7.2496,-7.2267,-7.227,-7.2272,0,-7.1719,-7.1769,-7.1902,-7.1939,-7.1965,-7.2025,-7.2079,-7.2131,-7.2169,-7.2171,-7.2207,-7.2189,-7.2265,-7.2199,-7.2304,-7.2243,-7.2273,-7.2283,-7.2289,-7.2296,-7.2222,-7.2341,-7.2539,-7.2561,-7.2302,-7.23,-7.2298,0,-7.1841,-7.194,-7.2033,-7.2057,-7.2101,-7.2145,-7.2165,-7.2199,-7.2235,-7.2281,-7.2304,-7.2358,-7.2388,-7.243,-7.2426,-7.2378,-7.2533,-7.2466,-7.2537,-7.2538,-7.2572,-7.257,-7.2779,-7.259,-7.259,-7.259,-7.2589,0,-7.2001,-7.2084,-7.2089,-7.2146,-7.2239,-7.2231,-7.2322,-7.2337,-7.2368,-7.2427,-7.24,-7.2455,-7.2447,-7.2502,-7.2499,-7.2587,-7.26,-7.2604,-7.2603,-7.2607,-7.2607,-7.2628,-7.2618,-7.2595,-7.2594,-7.2593,-7.2592,0,-7.2152,-7.2159,-7.2259,-7.2293,-7.2304,-7.2371,-7.2399,-7.2453,-7.246,-7.2535,-7.2552,-7.2563,-7.2627,-7.2628,-7.27,-7.2698,-7.2806,-7.2793,-7.2794,-7.2792,-7.2864,-7.2857,-7.3094,-7.3125,-7.2915,-7.2917,-7.2919,0,-7.2254,-7.2318,-7.236,-7.2399,-7.2423,-7.2485,-7.2522,-7.2517,-7.2557,-7.2605,-7.2653,-7.2715,-7.2764,-7.2867,-7.2881,-7.2936,-7.2924,-7.3004,-7.2932,-7.2936,-7.2927,-7.2924,-7.293,-7.3018,-7.302,-7.3022,-7.3023,0,-7.2435,-7.2436,-7.2492,-7.255,-7.2596,-7.264,-7.2682,-7.2714,-7.2713,-7.2759,-7.2826,-7.2864,-7.2939,-7.3001,-7.3054,-7.3073,-7.3049,-7.3046,-7.3065,-7.3071,-7.307,-7.3073,-7.2833,-7.304,-7.3039,-7.3038,-7.3037,-7.3036,-7.2565,-7.2621,-7.266,-7.2724,-7.2755,-7.2795,-7.2848,-7.2862,-7.2918,-7.2981,-7.2973,-7.3047,-7.3083,-7.3153,-7.3177,-7.3233,-7.3205,-7.3233,-7.3241,-7.3248,-7.3256,-7.3061,-7.3243,-7.3242,-7.3242,-7.3241,-7.3241,0,-7.2746,-7.277,-7.2828,-7.2888,-7.2939,-7.2913,-7.2957,-7.3,-7.3067,-7.3103,-7.3153,-7.3229,-7.3289,-7.3308,-7.3365,-7.3407,-7.3397,-7.3423,-7.342,-7.3425,-7.3277,-7.3255,-7.343,-7.343,-7.343,-7.343,-7.343,-7.343,-7.2845,-7.2939,-7.2944,-7.3052,-7.3075,-7.3149,-7.3177,-7.3213,-7.3242,-7.333,-7.338,-7.3393,-7.3422,-7.3482,-7.3535,-7.3539,-7.3562,-7.3592,-7.3591,-7.3454,-7.3435,-7.3417,-7.3396,-7.3597,-7.3597,-7.3734,-7.3735,-7.3736]}]]